Location: Killarney
(45.9719°N, 81.5115°W)
Time: 07:51:26
(UTC-04:00)

ISS - Pass Details

Date: 19 April 2025
Orbit: 416 x 419 km, 51.6° (Epoch: 14 May)

Event Time Altitude Azimuth Distance (km) Brightness Sun altitude
Exits shadow 05:24:39 - 185° (S) 1,816 -0.9 -11.6°
Reaches altitude 10° 05:25:49 10° 172° (S) 1,486 -1.2 -11.4°
Maximum altitude 05:27:50 15° 134° (SE) 1,214 -1.2 -11.1°
Drops below altitude 10° 05:29:51 10° 97° (E) 1,493 -0.1 -10.8°
Sets 05:32:34 0° 73° (ENE) 2,362 2.0 -10.4°
